Location: Haliburton Scout Reserve
(45.0900°N, 78.3200°W)
Time: 07:35:35
(UTC-04:00)

S-56A Canister/Altair - Pass Details

Date: 31 January 2023
Orbit: 639 x 2493 km, 38.9° (Epoch: 27 March)

Event Time Altitude Azimuth Distance (km) Brightness Sun altitude
Rises 18:22:16 0° 272° (W) 4,195 13.0 -11.3°
Reaches altitude 10° 18:25:41 10° 256° (WSW) 3,515 12.5 -11.9°
Maximum altitude 18:32:01 21° 213° (SSW) 3,231 11.3 -13.0°
Drops below altitude 10° 18:40:00 10° 171° (S) 4,550 11.5 -14.4°
Sets 18:45:22 0° 158° (SSE) 5,827 11.9 -15.3°
